Time,TemperatureF,DewpointF,PressureIn,WindDirection,WindDirectionDegrees,WindSpeedMPH,WindSpeedGustMPH,Humidity,HourlyPrecipIn,Conditions,Clouds,dailyrainin,SoftwareType,DateUTC
2013-06-30 00:02:00,69.0,56.0,-100.00,NNE,20,17.0,22.0,62,0.00,,,-99.99,,2013-06-30 04:02:00,
2013-06-30 00:12:00,69.0,57.0,-100.00,NNE,25,11.0,23.0,64,0.00,,,-99.99,,2013-06-30 04:12:00,
2013-06-30 00:22:00,69.0,56.0,-100.00,NNE,15,12.0,21.0,62,0.00,,,-99.99,,2013-06-30 04:22:00,
2013-06-30 00:33:00,69.0,57.0,-100.00,NNE,30,9.0,20.0,65,0.00,,,-99.99,,2013-06-30 04:33:00,
2013-06-30 00:43:00,69.0,57.0,-100.00,NNE,20,11.0,19.0,66,0.00,,,-99.99,,2013-06-30 04:43:00,
2013-06-30 00:53:00,69.0,57.0,-100.00,NNE,20,12.0,20.0,66,0.00,,,-99.99,,2013-06-30 04:53:00,
2013-06-30 01:02:00,68.0,57.0,-100.00,NE,40,13.0,22.0,66,0.00,,,-99.99,,2013-06-30 05:02:00,
2013-06-30 01:12:00,69.0,58.0,-100.00,NNE,20,11.0,20.0,70,0.00,,,-99.99,,2013-06-30 05:12:00,
2013-06-30 01:22:00,69.0,59.0,-100.00,NNE,30,6.0,22.0,70,0.00,,,-99.99,,2013-06-30 05:22:00,
2013-06-30 01:34:00,69.0,60.0,-100.00,ENE,60,8.0,18.0,73,0.00,,,-99.99,,2013-06-30 05:34:00,
2013-06-30 01:43:00,68.0,59.0,-100.00,NE,45,12.0,18.0,72,0.00,,,-99.99,,2013-06-30 05:43:00,
2013-06-30 01:53:00,68.0,59.0,-100.00,NNE,30,12.0,19.0,74,0.00,,,-99.99,,2013-06-30 05:53:00,
2013-06-30 02:02:00,68.0,60.0,-100.00,NE,40,18.0,22.0,75,0.00,,,-99.99,,2013-06-30 06:02:00,
2013-06-30 02:12:00,68.0,60.0,-100.00,NE,50,9.0,20.0,76,0.00,,,-99.99,,2013-06-30 06:12:00,
2013-06-30 02:23:00,67.0,60.0,-100.00,NE,35,16.0,21.0,77,0.00,,,-99.99,,2013-06-30 06:23:00,
2013-06-30 02:34:00,67.0,60.0,-100.00,NE,40,15.0,21.0,78,0.00,,,-99.99,,2013-06-30 06:34:00,
2013-06-30 02:43:00,67.0,60.0,-100.00,NE,40,17.0,23.0,78,0.00,,,-99.99,,2013-06-30 06:43:00,
2013-06-30 02:53:00,67.0,61.0,-100.00,NE,45,12.0,21.0,79,0.00,,,-99.99,,2013-06-30 06:53:00,
2013-06-30 03:02:00,67.0,61.0,-100.00,NNE,30,12.0,22.0,81,0.00,,,-99.99,,2013-06-30 07:02:00,
2013-06-30 03:12:00,67.0,61.0,-100.00,NE,35,14.0,20.0,80,0.00,,,-99.99,,2013-06-30 07:12:00,
2013-06-30 03:22:00,67.0,61.0,-100.00,NNE,30,12.0,19.0,80,0.00,,,-99.99,,2013-06-30 07:22:00,
2013-06-30 03:33:00,67.0,60.0,-100.00,NNE,30,14.0,18.0,77,0.00,,,-99.99,,2013-06-30 07:33:00,
2013-06-30 03:44:00,68.0,60.0,-100.00,NE,45,14.0,22.0,75,0.00,,,-99.99,,2013-06-30 07:44:00,
2013-06-30 03:53:00,68.0,59.0,-100.00,NE,40,11.0,21.0,75,0.00,,,-99.99,,2013-06-30 07:53:00,
2013-06-30 04:02:00,68.0,59.0,-100.00,NE,50,9.0,19.0,74,0.00,,,-99.99,,2013-06-30 08:02:00,
2013-06-30 04:12:00,68.0,59.0,-100.00,NE,35,14.0,21.0,73,0.00,,,-99.99,,2013-06-30 08:12:00,
2013-06-30 04:22:00,68.0,59.0,-100.00,NNE,30,12.0,21.0,73,0.00,,,-99.99,,2013-06-30 08:22:00,
2013-06-30 04:33:00,68.0,58.0,-100.00,NE,40,19.0,27.0,71,0.00,,,-99.99,,2013-06-30 08:33:00,
2013-06-30 04:42:00,68.0,58.0,-100.00,NE,40,16.0,22.0,72,0.00,,,-99.99,,2013-06-30 08:42:00,
2013-06-30 04:53:00,68.0,58.0,-100.00,NE,35,16.0,24.0,72,0.00,,,-99.99,,2013-06-30 08:53:00,
2013-06-30 05:01:00,68.0,58.0,-100.00,NE,40,18.0,27.0,70,0.00,,,-99.99,,2013-06-30 09:01:00,
2013-06-30 05:12:00,68.0,58.0,-100.00,NE,45,13.0,24.0,71,0.00,,,-99.99,,2013-06-30 09:12:00,
2013-06-30 05:23:00,68.0,58.0,-100.00,NE,40,15.0,25.0,69,0.00,,,-99.99,,2013-06-30 09:23:00,
2013-06-30 05:34:00,68.0,58.0,-100.00,NE,40,12.0,23.0,70,0.00,,,-99.99,,2013-06-30 09:34:00,
2013-06-30 05:43:00,68.0,58.0,-100.00,NE,35,13.0,26.0,72,0.00,,,-99.99,,2013-06-30 09:43:00,
2013-06-30 05:53:00,68.0,58.0,-100.00,NNE,30,15.0,21.0,72,0.00,,,-99.99,,2013-06-30 09:53:00,
2013-06-30 06:02:00,67.0,58.0,-100.00,NE,35,17.0,23.0,72,0.00,,,-99.99,,2013-06-30 10:02:00,
2013-06-30 06:11:00,67.0,58.0,-100.00,NE,40,16.0,21.0,73,0.00,,,-99.99,,2013-06-30 10:11:00,
2013-06-30 06:22:00,67.0,59.0,-100.00,NE,45,17.0,22.0,73,0.00,,,-99.99,,2013-06-30 10:22:00,
2013-06-30 06:33:00,67.0,59.0,-100.00,NE,40,12.0,22.0,73,0.00,,,-99.99,,2013-06-30 10:33:00,
2013-06-30 06:42:00,67.0,58.0,-100.00,NE,40,17.0,25.0,73,0.00,,,-99.99,,2013-06-30 10:42:00,
2013-06-30 06:53:00,67.0,59.0,-100.00,NE,45,12.0,20.0,73,0.00,,,-99.99,,2013-06-30 10:53:00,
2013-06-30 07:02:00,67.0,59.0,-100.00,NE,40,17.0,22.0,75,0.00,,,-99.99,,2013-06-30 11:02:00,
2013-06-30 07:22:00,67.0,60.0,-100.00,NE,40,11.0,21.0,76,0.00,,,-99.99,,2013-06-30 11:22:00,
2013-06-30 07:33:00,67.0,59.0,-100.00,NE,35,12.0,20.0,75,0.00,,,-99.99,,2013-06-30 11:33:00,
2013-06-30 07:43:00,68.0,59.0,-100.00,NE,35,17.0,21.0,75,0.00,,,-99.99,,2013-06-30 11:43:00,
2013-06-30 07:53:00,68.0,59.0,-100.00,NE,40,13.0,24.0,74,0.00,,,-99.99,,2013-06-30 11:53:00,
2013-06-30 08:02:00,68.0,60.0,-100.00,NE,35,14.0,21.0,75,0.00,,,-99.99,,2013-06-30 12:02:00,
2013-06-30 08:11:00,68.0,59.0,-100.00,NE,40,16.0,21.0,73,0.00,,,-99.99,,2013-06-30 12:11:00,
2013-06-30 08:24:00,68.0,59.0,-100.00,NE,40,12.0,17.0,74,0.00,,,-99.99,,2013-06-30 12:24:00,
2013-06-30 08:33:00,67.0,61.0,-100.00,NNE,30,7.0,21.0,81,0.00,,,-99.99,,2013-06-30 12:33:00,
2013-06-30 08:43:00,67.0,60.0,-100.00,NE,35,7.0,17.0,77,0.00,,,-99.99,,2013-06-30 12:43:00,
2013-06-30 08:52:00,68.0,58.0,-100.00,NE,35,13.0,20.0,71,0.00,,,-99.99,,2013-06-30 12:52:00,
2013-06-30 09:02:00,68.0,58.0,-100.00,NE,35,17.0,22.0,70,0.00,,,-99.99,,2013-06-30 13:02:00,
2013-06-30 09:12:00,68.0,59.0,-100.00,NNE,20,9.0,21.0,73,0.00,,,-99.99,,2013-06-30 13:12:00,
2013-06-30 09:22:00,68.0,58.0,-100.00,NE,40,14.0,20.0,70,0.00,,,-99.99,,2013-06-30 13:22:00,
2013-06-30 09:34:00,68.0,58.0,-100.00,NE,45,14.0,21.0,71,0.00,,,-99.99,,2013-06-30 13:34:00,
2013-06-30 09:43:00,68.0,58.0,-100.00,NE,40,14.0,24.0,69,0.00,,,-99.99,,2013-06-30 13:43:00,
2013-06-30 09:53:00,67.0,60.0,-100.00,NNE,30,9.0,22.0,75,0.00,,,-99.99,,2013-06-30 13:53:00,
2013-06-30 10:02:00,67.0,60.0,-100.00,NE,45,11.0,21.0,77,0.00,,,-99.99,,2013-06-30 14:02:00,
2013-06-30 10:11:00,67.0,60.0,-100.00,NE,40,12.0,18.0,77,0.00,,,-99.99,,2013-06-30 14:11:00,
2013-06-30 10:22:00,67.0,60.0,-100.00,NE,35,11.0,22.0,78,0.00,,,-99.99,,2013-06-30 14:22:00,
2013-06-30 10:33:00,67.0,60.0,-100.00,NE,45,11.0,19.0,78,0.00,,,-99.99,,2013-06-30 14:33:00,
2013-06-30 10:44:00,67.0,60.0,-100.00,NE,40,10.0,17.0,79,0.00,,,-99.99,,2013-06-30 14:44:00,
2013-06-30 10:52:00,67.0,61.0,-100.00,NE,40,12.0,20.0,79,0.00,,,-99.99,,2013-06-30 14:52:00,
2013-06-30 11:02:00,67.0,60.0,-100.00,ENE,65,13.0,20.0,77,0.00,,,-99.99,,2013-06-30 15:02:00,
2013-06-30 11:12:00,67.0,60.0,-100.00,NE,35,14.0,21.0,77,0.00,,,-99.99,,2013-06-30 15:12:00,
2013-06-30 11:23:00,67.0,59.0,-100.00,NE,40,11.0,21.0,75,0.00,,,-99.99,,2013-06-30 15:23:00,
2013-06-30 11:34:00,67.0,60.0,-100.00,NE,35,14.0,20.0,78,0.00,,,-99.99,,2013-06-30 15:34:00,
2013-06-30 11:44:00,67.0,59.0,-100.00,NNE,30,12.0,21.0,74,0.00,,,-99.99,,2013-06-30 15:44:00,
2013-06-30 11:53:00,67.0,59.0,-100.00,NE,50,10.0,19.0,75,0.55,,,-99.99,,2013-06-30 15:53:00,
2013-06-30 12:01:00,67.0,60.0,-100.00,NE,40,12.0,20.0,79,1.69,,,-99.99,,2013-06-30 16:01:00,
2013-06-30 12:11:00,67.0,60.0,-100.00,NE,40,14.0,22.0,79,0.00,,,-99.99,,2013-06-30 16:11:00,
2013-06-30 12:21:00,67.0,59.0,-100.00,NE,35,14.0,20.0,74,0.00,,,-99.99,,2013-06-30 16:21:00,
2013-06-30 12:34:00,68.0,60.0,-100.00,NE,45,12.0,18.0,75,0.00,,,-99.99,,2013-06-30 16:34:00,
2013-06-30 12:44:00,68.0,58.0,-100.00,NE,40,15.0,21.0,71,0.00,,,-99.99,,2013-06-30 16:44:00,
2013-06-30 12:53:00,68.0,58.0,-100.00,NNE,30,12.0,21.0,71,0.00,,,-99.99,,2013-06-30 16:53:00,
2013-06-30 13:02:00,68.0,58.0,-100.00,NE,55,13.0,21.0,69,0.00,,,-99.99,,2013-06-30 17:02:00,
2013-06-30 13:11:00,68.0,58.0,-100.00,NE,45,10.0,21.0,69,0.00,,,-99.99,,2013-06-30 17:11:00,
2013-06-30 13:23:00,69.0,58.0,-100.00,NNE,25,13.0,24.0,68,0.00,,,-99.99,,2013-06-30 17:23:00,
2013-06-30 13:34:00,69.0,57.0,-100.00,ENE,65,11.0,24.0,66,0.00,,,-99.99,,2013-06-30 17:34:00,
2013-06-30 13:43:00,69.0,56.0,-100.00,NNE,30,13.0,24.0,64,0.00,,,-99.99,,2013-06-30 17:43:00,
2013-06-30 13:52:00,69.0,57.0,-100.00,NNE,30,16.0,25.0,65,0.00,,,-99.99,,2013-06-30 17:52:00,
2013-06-30 14:02:00,69.0,56.0,-100.00,NE,50,13.0,25.0,65,0.00,,,-99.99,,2013-06-30 18:02:00,
2013-06-30 14:12:00,69.0,57.0,-100.00,NNE,25,17.0,25.0,65,0.00,,,-99.99,,2013-06-30 18:12:00,
2013-06-30 14:22:00,69.0,57.0,-100.00,NNE,25,16.0,24.0,66,0.00,,,-99.99,,2013-06-30 18:22:00,
2013-06-30 14:34:00,69.0,56.0,-100.00,NE,45,18.0,24.0,65,0.00,,,-99.99,,2013-06-30 18:34:00,
2013-06-30 14:43:00,69.0,57.0,-100.00,NE,45,15.0,25.0,65,0.00,,,-99.99,,2013-06-30 18:43:00,
2013-06-30 14:53:00,69.0,57.0,-100.00,NE,35,13.0,25.0,65,0.00,,,-99.99,,2013-06-30 18:53:00,
2013-06-30 15:01:00,70.0,57.0,-100.00,NNE,30,15.0,25.0,64,0.00,,,-99.99,,2013-06-30 19:01:00,
2013-06-30 15:11:00,70.0,56.0,-100.00,NNE,20,19.0,26.0,60,0.00,,,-99.99,,2013-06-30 19:11:00,
2013-06-30 15:22:00,69.0,56.0,-100.00,NNE,20,22.0,28.0,61,0.00,,,-99.99,,2013-06-30 19:22:00,
2013-06-30 15:33:00,70.0,57.0,-100.00,NNE,30,20.0,27.0,64,0.00,,,-99.99,,2013-06-30 19:33:00,
2013-06-30 15:43:00,69.0,57.0,-100.00,NE,35,21.0,26.0,64,0.00,,,-99.99,,2013-06-30 19:43:00,
2013-06-30 15:53:00,70.0,57.0,-100.00,NE,55,11.0,25.0,65,0.00,,,-99.99,,2013-06-30 19:53:00,
2013-06-30 16:02:00,69.0,59.0,-100.00,NNE,30,14.0,24.0,69,0.00,,,-99.99,,2013-06-30 20:02:00,
2013-06-30 16:12:00,70.0,59.0,-100.00,NNE,30,17.0,24.0,69,0.00,,,-99.99,,2013-06-30 20:12:00,
2013-06-30 16:22:00,70.0,59.0,-100.00,NNE,30,15.0,20.0,69,0.00,,,-99.99,,2013-06-30 20:22:00,
2013-06-30 16:34:00,70.0,59.0,-100.00,NE,35,15.0,24.0,69,0.00,,,-99.99,,2013-06-30 20:34:00,
2013-06-30 16:42:00,70.0,58.0,-100.00,NE,45,15.0,27.0,66,0.00,,,-99.99,,2013-06-30 20:42:00,
2013-06-30 16:52:00,71.0,59.0,-100.00,NE,55,10.0,25.0,65,0.00,,,-99.99,,2013-06-30 20:52:00,
2013-06-30 17:01:00,71.0,59.0,-100.00,ENE,65,16.0,22.0,65,0.00,,,-99.99,,2013-06-30 21:01:00,
2013-06-30 17:11:00,72.0,60.0,-100.00,ENE,70,13.0,20.0,65,0.00,,,-99.99,,2013-06-30 21:11:00,
2013-06-30 17:22:00,71.0,59.0,-100.00,ENE,65,17.0,21.0,65,0.00,,,-99.99,,2013-06-30 21:22:00,
2013-06-30 17:34:00,71.0,59.0,-100.00,NE,45,12.0,20.0,65,0.00,,,-99.99,,2013-06-30 21:34:00,
2013-06-30 17:43:00,72.0,60.0,-100.00,NE,50,7.0,23.0,67,0.00,,,-99.99,,2013-06-30 21:43:00,
2013-06-30 17:53:00,72.0,61.0,-100.00,NE,40,11.0,21.0,68,0.00,,,-99.99,,2013-06-30 21:53:00,
2013-06-30 18:01:00,71.0,60.0,-100.00,NE,55,13.0,19.0,67,0.00,,,-99.99,,2013-06-30 22:01:00,
2013-06-30 18:11:00,72.0,60.0,-100.00,NE,40,12.0,19.0,66,0.00,,,-99.99,,2013-06-30 22:11:00,
2013-06-30 18:22:00,72.0,59.0,-100.00,NE,35,16.0,21.0,62,0.00,,,-99.99,,2013-06-30 22:22:00,
2013-06-30 18:34:00,73.0,60.0,-100.00,NNE,30,11.0,19.0,64,0.00,,,-99.99,,2013-06-30 22:34:00,
2013-06-30 18:43:00,73.0,59.0,-100.00,NNE,30,21.0,24.0,63,0.00,,,-99.99,,2013-06-30 22:43:00,
2013-06-30 18:53:00,73.0,59.0,-100.00,NE,35,12.0,27.0,62,0.00,,,-99.99,,2013-06-30 22:53:00,
2013-06-30 19:02:00,73.0,60.0,-100.00,NNE,30,11.0,25.0,64,0.00,,,-99.99,,2013-06-30 23:02:00,
2013-06-30 19:11:00,73.0,60.0,-100.00,NNE,25,15.0,21.0,64,0.00,,,-99.99,,2013-06-30 23:11:00,
2013-06-30 19:22:00,73.0,60.0,-100.00,NNE,30,16.0,21.0,64,0.00,,,-99.99,,2013-06-30 23:22:00,
2013-06-30 19:33:00,73.0,60.0,-100.00,NE,45,10.0,20.0,63,0.00,,,-99.99,,2013-06-30 23:33:00,
2013-06-30 19:44:00,73.0,60.0,-100.00,NE,35,17.0,22.0,63,0.00,,,-99.99,,2013-06-30 23:44:00,
2013-06-30 19:53:00,73.0,60.0,-100.00,NNE,25,14.0,25.0,62,0.00,,,-99.99,,2013-06-30 23:53:00,
2013-06-30 20:01:00,73.0,60.0,-100.00,NNE,30,15.0,28.0,62,0.00,,,-99.99,,2013-07-01 00:01:00,
2013-06-30 20:11:00,73.0,59.0,-100.00,NNE,25,21.0,25.0,60,0.00,,,-99.99,,2013-07-01 00:11:00,
2013-06-30 20:22:00,73.0,60.0,-100.00,NNE,30,19.0,29.0,63,0.00,,,-99.99,,2013-07-01 00:22:00,
2013-06-30 20:33:00,73.0,60.0,-100.00,NNE,30,13.0,28.0,64,0.00,,,-99.99,,2013-07-01 00:33:00,
2013-06-30 20:42:00,73.0,59.0,-100.00,NNE,25,19.0,25.0,62,0.00,,,-99.99,,2013-07-01 00:42:00,
2013-06-30 20:52:00,73.0,59.0,-100.00,NNE,25,22.0,29.0,61,0.00,,,-99.99,,2013-07-01 00:52:00,
2013-06-30 21:01:00,73.0,59.0,-100.00,NNE,25,21.0,31.0,62,0.00,,,-99.99,,2013-07-01 01:01:00,
2013-06-30 21:11:00,73.0,59.0,-100.00,NNE,25,19.0,28.0,62,0.00,,,-99.99,,2013-07-01 01:11:00,
2013-06-30 21:22:00,72.0,60.0,-100.00,NE,45,11.0,22.0,65,0.00,,,-99.99,,2013-07-01 01:22:00,
2013-06-30 21:33:00,72.0,61.0,-100.00,NE,50,16.0,25.0,68,0.00,,,-99.99,,2013-07-01 01:33:00,
2013-06-30 21:42:00,71.0,60.0,-100.00,NE,50,15.0,22.0,68,0.00,,,-99.99,,2013-07-01 01:42:00,
2013-06-30 21:52:00,72.0,60.0,-100.00,NE,45,19.0,24.0,66,0.00,,,-99.99,,2013-07-01 01:52:00,
2013-06-30 22:02:00,71.0,60.0,-100.00,NE,40,7.0,21.0,69,0.00,,,-99.99,,2013-07-01 02:02:00,
2013-06-30 22:12:00,71.0,58.0,-100.00,NE,45,14.0,25.0,63,0.00,,,-99.99,,2013-07-01 02:12:00,
2013-06-30 22:22:00,71.0,58.0,-100.00,NE,55,12.0,23.0,63,0.00,,,-99.99,,2013-07-01 02:22:00,
2013-06-30 22:33:00,72.0,58.0,-100.00,NE,50,14.0,24.0,62,0.00,,,-99.99,,2013-07-01 02:33:00,
2013-06-30 22:44:00,72.0,58.0,-100.00,NE,55,11.0,23.0,61,0.00,,,-99.99,,2013-07-01 02:44:00,
2013-06-30 22:53:00,71.0,58.0,-100.00,NE,55,12.0,22.0,62,0.00,,,-99.99,,2013-07-01 02:53:00,
2013-06-30 23:01:00,71.0,58.0,-100.00,NE,40,13.0,20.0,62,0.00,,,-99.99,,2013-07-01 03:01:00,
2013-06-30 23:11:00,71.0,58.0,-100.00,NE,40,17.0,21.0,63,0.00,,,-99.99,,2013-07-01 03:11:00,
2013-06-30 23:23:00,71.0,58.0,-100.00,NE,55,14.0,21.0,64,0.00,,,-99.99,,2013-07-01 03:23:00,
2013-06-30 23:33:00,71.0,58.0,-100.00,NE,40,16.0,23.0,65,0.00,,,-99.99,,2013-07-01 03:33:00,
2013-06-30 23:43:00,70.0,59.0,-100.00,NE,40,12.0,22.0,67,0.00,,,-99.99,,2013-07-01 03:43:00,
2013-06-30 23:52:00,70.0,59.0,-100.00,NE,55,11.0,22.0,68,0.00,,,-99.99,,2013-07-01 03:52:00,